Location: Greenhawk Observatory
(37.3417°N, 122.0298°W)
Time: 00:16:06
(UTC-08:00)

Daily predictions for brighter satellites

Satellite Brightness Start Highest point End
(mag) Time Altitude Azimuth Time Altitude Azimuth Time Altitude Azimuth
CZ-4C R/B 3.5 04:08:00 49° NE 04:08:42 50° NE 04:16:27 10° SE
COSMOS 2406 4.0 04:32:15 47° SE 04:32:15 47° SE 04:36:22 10° SSE
ATLAS CENTAUR R/B 3.8 04:34:53 19° ENE 04:34:53 19° ENE 04:37:41 10° E
Lacrosse 5 4.3 04:48:43 12° S 04:48:43 12° S 04:49:08 10° S
Okean-O 4.3 04:47:04 10° NNE 04:51:05 33° E 04:55:04 10° SSE
DELTA 2 R/B (1) 3.6 04:57:52 73° S 04:57:52 73° S 05:03:10 10° ESE
Cosmos-2242 4.1 04:54:22 10° SSE 04:58:27 44° E 05:02:32 10° NNE
Cosmos 1709 Rocket 4.2 05:03:49 51° NNW 05:03:49 51° NNW 05:08:46 10° N
Milstar 3 3.7 05:08:17 28° SW 05:11:35 41° S 05:17:44 10° ESE
Cosmos 2278 Rocket 2.0 05:11:17 37° SSW 05:13:38 81° WNW 05:19:20 10° NNE
Cosmos 1408 Rocket 4.4 05:12:06 13° N 05:15:50 50° E 05:20:07 10° SSE
Cosmos 2184 Rocket 4.3 05:11:35 10° S 05:17:45 69° E 05:24:02 10° NNE
Cosmos 1315 Rocket 3.6 05:20:02 40° S 05:20:02 40° S 05:22:42 10° S
SKYMED 2 3.7 05:16:38 10° SSE 05:20:57 73° ENE 05:23:21 26° N
Cosmos 371 Rocket 3.2 05:19:45 50° NNW 05:21:03 86° WSW 05:25:55 10° SSE
Cosmos 1741 Rocket 3.9 05:20:54 56° WSW 05:21:37 62° WNW 05:26:49 10° N
NOSS 3-1 (C) 4.3 05:18:51 10° S 05:24:08 45° ESE 05:29:57 10° NE
Shenzhou-11 Module 4.1 05:26:07 21° NE 05:26:07 21° NE 05:27:37 10° ENE
SL-8 R/B 3.8 05:29:07 34° SW 05:31:08 72° SE 05:35:56 10° ENE
Abrixas rocket 3.1 05:32:45 41° NNE 05:32:46 41° NNE 05:35:52 10° ESE
MSX 4.3 05:27:14 10° NNE 05:32:55 61° E 05:38:34 10° S
BREEZE-M DEB (TANK) 4.2 05:34:33 13° NNE 05:34:33 13° NNE 05:35:36 10° NNE
Cosmos 1626 2.0 05:38:29 30° N 05:40:15 84° W 05:43:58 10° S
Feng Yun 1-1 Rocket 4.1 05:35:33 10° N 05:40:54 66° WNW 05:46:13 10° SSW
Cosmos 1328 3.8 05:42:04 46° NW 05:42:46 54° W 05:46:38 10° S
MTI 3.7 05:40:30 10° S 05:43:39 63° WSW 05:43:39 63° WSW
Cosmos 1908 4.4 05:40:07 10° SSE 05:43:51 45° E 05:47:37 10° NNE
Cosmos 1743 Rocket 4.5 05:39:46 10° N 05:43:59 49° E 05:48:11 10° SSE
CZ-2C R/B 4.4 05:45:57 10° SSW 05:50:13 34° W 05:51:08 31° WNW
Cosmos 2074 Rocket 3.9 05:44:28 10° SSW 05:50:37 62° W 05:56:46 10° N
Gbstr 26 Del rocket 3.9 05:46:09 13° SW 05:51:15 89° SSE 05:58:22 10° NE
Meteor 1-16 Rocket 4.4 05:46:57 10° SSW 05:52:17 44° WNW 05:57:30 10° N
CZ-4C R/B 3.5 05:53:15 23° WNW 05:57:16 38° WSW 06:04:32 10° S
Cosmos 2082 Rocket 2.5 05:52:28 10° NNW 05:58:04 66° ENE 06:03:38 10° SSE
GPS 2-04 Rocket1 3.0 06:00:48 26° W 06:02:59 64° S 06:07:13 10° ESE
Cosmos 1766 Rocket 4.1 06:00:13 17° NNW 06:03:06 36° W 06:07:09 10° SSW
Cosmos 1703 3.1 05:59:35 10° NNW 06:03:32 70° W 06:07:25 10° S
PAYLOAD A 4.3 06:00:29 10° N 06:04:56 37° WNW 06:09:15 10° SW
IDEFIX/ARIANE 42P 3.0 06:01:38 10° N 06:06:31 40° WNW 06:11:23 10° SW
SL-27 R/B 2.6 06:05:57 17° NNW 06:08:37 55° WSW 06:12:08 10° S
COSMO-SKYMED 1 3.3 06:05:15 10° SSW 06:09:04 30° W 06:11:57 15° NW
Meteor 1-11 4.4 06:05:01 10° NNW 06:10:35 50° W 06:16:11 10° SSW
Cosmos 2208 Rocket 4.4 06:06:04 11° NNW 06:11:02 43° WSW 06:16:09 10° S
Tiangong 2 2.2 06:10:06 23° NW 06:11:15 30° N 06:14:09 10° ENE
SJ-12 3.9 06:08:03 10° N 06:12:08 63° WNW 06:16:13 10° SSW
ATLAS CENTAUR R/B 2.0 06:11:11 20° WNW 06:13:38 39° WSW 06:17:45 10° S
Cosmos 304 Rocket 3.7 06:09:17 10° NNW 06:14:05 76° WSW 06:18:51 10° S
Thor Agena Rocket 4.0 06:09:10 10° SSE 06:14:19 65° ENE 06:19:34 10° N
CZ-3 R/B 3.7 06:18:12 10° SSW 06:20:31 12° S 06:22:16 10° SSE
Cosmos 468 Rocket 4.1 06:15:36 10° NNW 06:20:40 53° WSW 06:25:44 10° S
Cosmos 1809 Rocket 4.4 06:15:26 10° S 06:21:35 85° W 06:27:46 10° N
CZ-2C R/B 2.8 06:17:34 10° N 06:21:46 35° WNW 06:26:05 10° SW
USA 229 DEB 4.1 06:15:46 10° WSW 06:22:00 39° NW 06:28:24 10° NNE
USA 229 4.1 06:15:51 10° WSW 06:22:06 39° NW 06:28:31 10° NNE
Cosmos 2297 3.8 06:16:35 10° SW 06:22:11 55° WNW 06:27:48 10° NNE
Cosmos 1842 Rocket 3.7 06:18:43 10° SSW 06:23:03 50° W 06:27:26 10° N
Cosmos 1484 Rocket 2.6 06:19:31 10° N 06:23:16 81° WNW 06:27:02 10° SSW
Cosmos 1833 Rocket 2.7 06:18:22 10° NNW 06:24:00 71° WSW 06:29:36 10° SSE
NOSS 3-1 (A) 3.3 06:18:35 10° SSW 06:24:12 89° WNW 06:30:32 10° NNE
BREEZE-M DEB (TANK) 4.3 06:21:22 11° NW 06:24:22 17° N 06:26:26 10° NE
Cosmos 1814 Rocket 3.9 06:19:28 10° NNW 06:24:41 82° WSW 06:29:49 10° SSE
Cosmos 2058 3.1 06:22:23 10° NNW 06:26:27 48° W 06:30:28 10° SSW
EO 1 Del DPAF 4.3 06:23:14 10° SSW 06:26:27 26° W 06:29:41 10° NW
Cosmos 841 Rocket 3.7 06:22:01 10° NNW 06:27:11 72° ENE 06:32:17 10° SSE
Okean-O 3.9 06:24:04 10° NNW 06:27:19 20° WNW 06:30:34 10° WSW
Meteor 2-1 Rocket 4.3 06:22:44 10° SSW 06:28:07 55° WNW 06:33:35 10° N
Cosmos 2341 Rocket 4.0 06:26:26 10° S 06:32:38 80° W 06:38:52 10° N
Cosmos 1174 4.0 06:29:32 10° NW 06:33:02 37° WSW 06:36:02 10° S
Meteor 2-15 4.4 06:29:12 10° N 06:35:15 77° W 06:41:17 10° S
Meteor 2-21 4.4 06:29:22 10° SSW 06:35:32 69° W 06:41:42 10° N
Cosmos 1763 Rocket 3.4 06:31:07 10° NNW 06:36:10 66° WSW 06:41:15 10° S
CZ-4 R/B 1.5 06:38:10 10° NNE 06:42:15 82° E 06:46:14 10° S
Cosmos 1300 2.9 06:39:53 10° S 06:43:42 77° E 06:47:31 10° N
Cosmos 1486 Rocket 4.1 06:38:36 10° SSW 06:43:49 57° WNW 06:49:05 10° N
Cosmos 2154 Rocket 4.3 06:38:17 10° SSW 06:44:07 43° WNW 06:50:02 10° N
Meteor 2-10 4.1 06:39:24 10° S 06:44:45 86° E 06:49:56 10° N
Cosmos 2151 3.9 06:45:11 10° NNW 06:48:54 29° W 06:52:35 10° SSW
Lacrosse 5 rocket 3.6 06:46:57 10° S 06:50:06 27° ESE 06:53:22 10° ENE
CORIOLIS 4.2 06:45:49 10° NNE 06:51:14 82° WNW 06:56:39 10° SSW
MINOTAUR R/B 4.5 06:51:37 10° NW 06:53:34 31° WSW 06:55:30 10° S
